Ada, OK

7:16 PM CDT on September 25, 2016 (GMT -0500)
Ada Municipal

Weather History for KADH - October, 2011

Change the Weather History Date:

Tuesday, October 18, 2011

  Actual Average Record
Temperature  
Mean Temperature 54 °F -  
Max Temperature 62 °F 75 °F 91 °F (1972)
Min Temperature 46 °F 48 °F 27 °F (1948)
Degree Days  
Heating Degree Days 11    
Growing Degree Days 4 (Base 50)    
Moisture  
Dew Point 34 °F    
Average Humidity 48    
Maximum Humidity 71    
Minimum Humidity 31    
Precipitation  
Precipitation 0.00 in - - ()
Sea Level Pressure  
Sea Level Pressure 30.02 in    
Wind  
Wind Speed 17 mph (NNW)    
Max Wind Speed 28 mph    
Max Gust Speed 40 mph    
Visibility 10 miles    
Events      
Averages and records for this station are not official NWS values.
T = Trace of Precipitation, MM = Missing Value Source: NWS Daily Summary

Daily Weather History Graph

Daily Weather History Graph

Search for Another Location

Airport or City:

Trip Planner

Search our weather history database for the weather conditions in past years. The results will help you decide how hot, cold, wet, or windy it might be!

Date:

Astronomy

Oct. 18, 2011 Rise Set
Actual Time 7:34 AM CDT 6:48 PM CDT
Civil Twilight 7:09 AM CDT 7:13 PM CDT
Nautical Twilight 6:39 AM CDT 7:43 PM CDT
Astronomical Twilight 6:10 AM CDT 8:12 PM CDT
Moon 11:38 PM CDT (10/18) 1:18 PM CDT (10/18)
Length of Visible Light 12h 04m
Length of Day
11h 13m
Waning Gibbous, 64% of the Moon is Illuminated
Oct 18
Waning Gibbous
Oct 19
Last Quarter
Oct 26
New
Nov 2
First Quarter
Nov 10
Full

Hourly Weather History & Observations

Time (CDT) Temp. Windchill Dew Point Humidity Pressure Visibility Wind Dir Wind Speed Gust Speed Precip Events Conditions
12:15 AM 51.8 °F - 41.0 °F 67% 29.90 in 10.0 mi North 23.0 mph 31.1 mph N/A   Overcast
12:35 AM 51.8 °F - 37.4 °F 58% 29.90 in 10.0 mi North 27.6 mph 34.5 mph N/A   Overcast
1:15 AM 51.8 °F - 33.8 °F 50% 29.90 in 10.0 mi North 18.4 mph 33.4 mph N/A   Overcast
1:35 AM 51.8 °F - 33.8 °F 50% 29.91 in 10.0 mi North 19.6 mph 29.9 mph N/A   Overcast
2:15 AM 51.8 °F - 32.0 °F 47% 29.91 in 10.0 mi North 20.7 mph 35.7 mph N/A   Scattered Clouds
2:55 AM 50.0 °F - 33.8 °F 54% 29.94 in 10.0 mi North 19.6 mph 32.2 mph N/A   Scattered Clouds
3:15 AM 50.0 °F - 33.8 °F 54% 29.95 in 10.0 mi North 16.1 mph 23.0 mph N/A   Mostly Cloudy
3:35 AM 50.0 °F - 35.6 °F 58% 29.96 in 10.0 mi North 19.6 mph 40.3 mph N/A   Overcast
3:55 AM 50.0 °F - 35.6 °F 58% 29.97 in 10.0 mi North 13.8 mph 26.5 mph N/A   Overcast
4:15 AM 50.0 °F - 35.6 °F 58% 29.97 in 10.0 mi North 18.4 mph 26.5 mph N/A   Overcast
4:35 AM 50.0 °F - 33.8 °F 54% 29.98 in 10.0 mi North 19.6 mph 36.8 mph N/A   Overcast
4:55 AM 50.0 °F - 33.8 °F 54% 29.99 in 10.0 mi North 17.3 mph 29.9 mph N/A   Overcast
5:15 AM 50.0 °F - 35.6 °F 58% 29.99 in 10.0 mi North 18.4 mph 26.5 mph N/A   Overcast
5:35 AM 50.0 °F - 35.6 °F 58% 30.00 in 10.0 mi North 11.5 mph 23.0 mph N/A   Mostly Cloudy
5:55 AM 50.0 °F - 35.6 °F 58% 30.01 in 10.0 mi North 9.2 mph 16.1 mph N/A   Scattered Clouds
6:15 AM 48.2 °F - 35.6 °F 62% 29.99 in 10.0 mi North 11.5 mph 17.3 mph N/A   Clear
6:35 AM 46.4 °F 39.8 °F 35.6 °F 66% 29.99 in 10.0 mi North 16.1 mph 21.9 mph N/A   Clear
7:15 AM 46.4 °F 40.1 °F 35.6 °F 66% 30.00 in 10.0 mi North 15.0 mph 20.7 mph N/A   Clear
7:35 AM 46.4 °F 41.9 °F 35.6 °F 66% 30.01 in 10.0 mi NNW 9.2 mph 17.3 mph N/A   Clear
7:55 AM 46.4 °F 40.4 °F 35.6 °F 66% 30.02 in 10.0 mi NNW 13.8 mph 18.4 mph N/A   Clear
8:15 AM 46.4 °F 40.4 °F 37.4 °F 71% 30.03 in 10.0 mi NNW 13.8 mph 24.2 mph N/A   Clear
8:35 AM 46.4 °F 40.4 °F 37.4 °F 71% 30.04 in 10.0 mi NNW 13.8 mph 24.2 mph N/A   Clear
8:55 AM 46.4 °F 39.5 °F 37.4 °F 71% 30.06 in 10.0 mi NNW 17.3 mph 26.5 mph N/A   Clear
9:15 AM 46.4 °F 39.8 °F 37.4 °F 71% 30.06 in 10.0 mi North 16.1 mph 25.3 mph N/A   Clear
9:35 AM 48.2 °F - 37.4 °F 66% 30.07 in 10.0 mi NNW 19.6 mph 24.2 mph N/A   Clear
9:55 AM 50.0 °F - 37.4 °F 62% 30.07 in 10.0 mi NNW 15.0 mph 23.0 mph N/A   Clear
10:15 AM 50.0 °F - 37.4 °F 62% 30.08 in 10.0 mi North 17.3 mph 25.3 mph N/A   Clear
10:35 AM 51.8 °F - 35.6 °F 54% 30.08 in 10.0 mi North 17.3 mph 23.0 mph N/A   Clear
10:55 AM 53.6 °F - 35.6 °F 51% 30.09 in 10.0 mi NNW 15.0 mph 27.6 mph N/A   Clear
11:15 AM 53.6 °F - 37.4 °F 54% 30.08 in 10.0 mi NNW 17.3 mph 26.5 mph N/A   Clear
11:55 AM 55.4 °F - 35.6 °F 47% 30.08 in 10.0 mi NNW 11.5 mph 24.2 mph N/A   Clear
12:15 PM 57.2 °F - 35.6 °F 44% 30.08 in 10.0 mi NNW 11.5 mph 25.3 mph N/A   Clear
12:35 PM 59.0 °F - 33.8 °F 39% 30.07 in 10.0 mi NNW 18.4 mph 21.9 mph N/A   Clear
12:55 PM 59.0 °F - 33.8 °F 39% 30.07 in 10.0 mi North 18.4 mph 29.9 mph N/A   Clear
1:15 PM 60.8 °F - 33.8 °F 36% 30.06 in 10.0 mi North 18.4 mph 27.6 mph N/A   Clear
1:35 PM 60.8 °F - 33.8 °F 36% 30.05 in 10.0 mi NNW 18.4 mph 25.3 mph N/A   Clear
1:55 PM 60.8 °F - 32.0 °F 34% 30.04 in 10.0 mi NNW 18.4 mph 31.1 mph N/A   Clear
2:15 PM 60.8 °F - 33.8 °F 36% 30.03 in 10.0 mi NNW 13.8 mph 23.0 mph N/A   Clear
2:35 PM 62.6 °F - 32.0 °F 32% 30.02 in 10.0 mi North 19.6 mph 29.9 mph N/A   Clear
2:55 PM 62.6 °F - 32.0 °F 32% 30.01 in 10.0 mi North 21.9 mph 29.9 mph N/A   Clear
3:15 PM 60.8 °F - 32.0 °F 34% 30.01 in 10.0 mi NNW 19.6 mph 31.1 mph N/A   Clear
3:35 PM 62.6 °F - 32.0 °F 32% 30.01 in 10.0 mi NNW 16.1 mph 23.0 mph N/A   Clear
3:55 PM 62.6 °F - 32.0 °F 32% 30.00 in 10.0 mi North 18.4 mph 28.8 mph N/A   Clear
4:15 PM 62.6 °F - 32.0 °F 32% 30.00 in 10.0 mi NNW 16.1 mph 26.5 mph N/A   Clear
4:35 PM 62.6 °F - 32.0 °F 32% 30.00 in 10.0 mi NNW 15.0 mph 27.6 mph N/A   Clear
4:55 PM 60.8 °F - 32.0 °F 34% 30.00 in 10.0 mi NNW 17.3 mph 26.5 mph N/A   Clear
5:15 PM 60.8 °F - 30.2 °F 31% 30.00 in 10.0 mi NW 15.0 mph 21.9 mph N/A   Clear
5:35 PM 60.8 °F - 30.2 °F 31% 30.00 in 10.0 mi NW 13.8 mph 24.2 mph N/A   Clear
5:55 PM 60.8 °F - 30.2 °F 31% 30.01 in 10.0 mi NNW 8.1 mph 16.1 mph N/A   Clear
6:15 PM 59.0 °F - 30.2 °F 34% 30.01 in 10.0 mi NNW 12.7 mph 17.3 mph N/A   Clear
6:35 PM 59.0 °F - 30.2 °F 34% 30.01 in 10.0 mi NNW 15.0 mph 21.9 mph N/A   Clear
6:55 PM 57.2 °F - 32.0 °F 38% 30.02 in 10.0 mi NNW 10.4 mph 20.7 mph N/A   Clear
7:15 PM 55.4 °F - 30.2 °F 38% 30.03 in 10.0 mi NNW 13.8 mph 21.9 mph N/A   Clear
7:35 PM 55.4 °F - 28.4 °F 36% 30.04 in 10.0 mi NNW 12.7 mph 19.6 mph N/A   Clear
7:55 PM 55.4 °F - 30.2 °F 38% 30.05 in 10.0 mi NNW 11.5 mph 23.0 mph N/A   Clear
8:15 PM 53.6 °F - 30.2 °F 41% 30.05 in 10.0 mi NNW 11.5 mph 21.9 mph N/A   Clear
8:35 PM 53.6 °F - 30.2 °F 41% 30.05 in 10.0 mi NNW 11.5 mph 19.6 mph N/A   Clear
8:55 PM 53.6 °F - 30.2 °F 41% 30.06 in 10.0 mi NNW 10.4 mph 17.3 mph N/A   Clear
9:15 PM 51.8 °F - 30.2 °F 44% 30.06 in 10.0 mi NNW 8.1 mph - N/A   Clear
9:35 PM 51.8 °F - 30.2 °F 44% 30.07 in 10.0 mi NNW 9.2 mph - N/A   Clear
9:55 PM 50.0 °F - 30.2 °F 47% 30.07 in 10.0 mi NW 8.1 mph - N/A   Clear
10:15 PM 50.0 °F - 30.2 °F 47% 30.08 in 10.0 mi NW 6.9 mph - N/A   Clear
10:35 PM 50.0 °F - 30.2 °F 47% 30.08 in 10.0 mi NW 6.9 mph - N/A   Clear
10:55 PM 48.2 °F - 30.2 °F 50% 30.08 in 10.0 mi NW 6.9 mph - N/A   Clear
11:15 PM 48.2 °F - 30.2 °F 50% 30.08 in 10.0 mi NNW 5.8 mph - N/A   Clear
11:35 PM 48.2 °F - 30.2 °F 50% 30.08 in 10.0 mi NNW 5.8 mph - N/A   Clear
11:55 PM 46.4 °F 43.5 °F 30.2 °F 53% 30.08 in 10.0 mi NW 5.8 mph - N/A   Clear